Location: Arapaho Elementary School
(32.9607°N, 96.7625°W)
Time: 10:46:21
(UTC+00:00)

H-2A R/B - Pass Details

Date: 08 December 2021
Orbit: 496 x 536 km, 97.3° (Epoch: 20 January)

Event Time Altitude Azimuth Distance (km) Brightness Sun altitude
Exits shadow 12:14:24 20° 272° (W) 1,244 4.0 -13.1°
Drops below altitude 10° 12:16:34 10° 238° (WSW) 1,753 5.0 -12.6°
Sets 12:19:02 0° 222° (SW) 2,644 6.1 -12.2°
